Weather History for Buffalo, WY

Change the Weather History Date:

Wednesday, October 3, 2012

  Actual Average Record
Temperature  
Mean Temperature 43 °F 50 °F  
Max Temperature 57 °F 62 °F 85 °F (2010)
Min Temperature 32 °F 38 °F 22 °F (2014)
Degree Days  
Heating Degree Days 22 15  
Month to date heating degree days 44  
Since 1 July heating degree days 358  
Cooling Degree Days 0 0  
Month to date cooling degree days 0  
Year to date cooling degree days 491  
Moisture  
Dew Point 30 °F    
Average Humidity 76    
Maximum Humidity 92    
Minimum Humidity 38    
Precipitation  
Precipitation 0.00 in 0.04 in 0.90 in (2013)
Month to date precipitation 0.14  
Year to date precipitation 11.72  
Sea Level Pressure  
Sea Level Pressure 30.12 in    
Wind  
Wind Speed 19 mph (NNW)    
Max Wind Speed 38 mph    
Max Gust Speed 53 mph    
Visibility 8 miles    
Events Snow    
T = Trace of Precipitation, MM = Missing Value Source: NWS Daily Summary

Daily Weather History Graph

Daily Weather History Graph

Search for Another Location

Airport:

Trip Planner

Search our weather history database for the weather conditions in past years. The results will help you decide how hot, cold, wet, or windy it might be!

Date:

Astronomy

Oct. 03, 2012 Rise Set
Actual Time 7:07 AM MDT 6:42 PM MDT
Civil Twilight 6:38 AM MDT 7:11 PM MDT
Nautical Twilight 6:05 AM MDT 7:45 PM MDT
Astronomical Twilight 5:31 AM MDT 8:19 PM MDT
Moon 8:27 PM MDT (10/3) 10:43 AM MDT (10/3)
Length of Visible Light 12h 33m
Length of Day
11h 35m
Waning Gibbous, 88% of the Moon is Illuminated
Oct 3
Waning Gibbous
Oct 8
Last Quarter
Oct 15
New
Oct 21
First Quarter
Oct 29
Full

Hourly Weather History & Observations

Time (MDT) Temp. Windchill Dew Point Humidity Pressure Visibility Wind Dir Wind Speed Gust Speed Precip Events Conditions
12:53 AM 54.0 °F - 28.9 °F 38% 29.67 in 10.0 mi Calm Calm - N/A   Partly Cloudy
1:53 AM 51.1 °F - 30.0 °F 44% 29.68 in 10.0 mi North 8.1 mph - N/A   Clear
2:53 AM 48.0 °F - 30.0 °F 50% 29.68 in 10.0 mi NW 4.6 mph - N/A   Clear
3:53 AM 44.1 °F 42.5 °F 28.9 °F 55% 29.67 in 10.0 mi NNW 3.5 mph - N/A   Clear
4:53 AM 48.9 °F - 33.1 °F 54% 29.70 in 10.0 mi NNW 16.1 mph 26.5 mph N/A   Clear
5:53 AM 45.0 °F 36.4 °F 34.0 °F 65% 29.74 in 10.0 mi NNW 23.0 mph 27.6 mph N/A   Clear
6:53 AM 39.9 °F 28.6 °F 32.0 °F 73% 29.82 in 10.0 mi NNW 28.8 mph 47.2 mph N/A   Clear
7:41 AM 39.2 °F 26.1 °F 33.8 °F 81% 29.93 in 10.0 mi NNW 38.0 mph 50.6 mph N/A   Mostly Cloudy
7:53 AM 39.0 °F 25.9 °F 34.0 °F 82% 29.88 in 10.0 mi NNW 38.0 mph 49.5 mph N/A   Overcast
9:53 AM 37.0 °F 23.5 °F 30.0 °F 76% 30.00 in 10.0 mi NNW 35.7 mph 44.9 mph N/A   Overcast
11:19 AM 39.2 °F 27.2 °F 30.2 °F 70% 30.09 in 10.0 mi NNW 31.1 mph 48.3 mph N/A   Overcast
11:37 AM 37.4 °F 25.4 °F 30.2 °F 75% 30.11 in 10.0 mi NNW 27.6 mph 38.0 mph N/A   Overcast
11:53 AM 37.9 °F 25.7 °F 30.0 °F 73% 30.08 in 10.0 mi NNW 29.9 mph 41.4 mph N/A   Overcast
12:45 PM 33.8 °F 19.4 °F 28.4 °F 81% 30.14 in 6.0 mi NNW 33.4 mph 44.9 mph 0.00 in Snow Light Snow
12:53 PM 34.0 °F 19.7 °F 28.0 °F 79% 30.12 in 6.0 mi NNW 33.4 mph 50.6 mph 0.00 in Snow Light Snow
1:53 PM 34.0 °F 19.3 °F 28.0 °F 79% 30.16 in 4.0 mi NNW 35.7 mph 52.9 mph 0.00 in Snow Light Snow
2:53 PM 33.1 °F 19.3 °F 30.0 °F 89% 30.22 in 2.5 mi NNW 28.8 mph 42.6 mph 0.00 in Snow Light Snow
3:07 PM 33.8 °F 20.8 °F 30.2 °F 87% 30.22 in 1.5 mi NNW 26.5 mph 41.4 mph 0.00 in Snow Light Snow
3:21 PM 33.8 °F 20.5 °F 30.2 °F 87% 30.23 in 1.2 mi NNW 27.6 mph 42.6 mph 0.00 in Snow Light Snow
3:53 PM 33.1 °F 19.8 °F 30.9 °F 92% 30.27 in 1.8 mi NNW 26.5 mph 39.1 mph 0.00 in Snow Light Snow
4:01 PM 33.8 °F 20.1 °F 30.2 °F 87% 30.25 in 2.5 mi NNW 29.9 mph 40.3 mph 0.00 in Snow Light Snow
4:09 PM 33.8 °F 20.3 °F 30.2 °F 87% 30.24 in 4.0 mi NNW 28.8 mph 39.1 mph 0.00 in Snow Light Snow
4:53 PM 35.1 °F 23.0 °F 30.9 °F 85% 30.28 in 10.0 mi North 24.2 mph 36.8 mph 0.00 in   Mostly Cloudy
5:53 PM 36.0 °F 24.4 °F 30.0 °F 79% 30.34 in 10.0 mi North 23.0 mph 38.0 mph N/A   Scattered Clouds
6:53 PM 35.1 °F 24.1 °F 30.0 °F 82% 30.39 in 10.0 mi NNW 19.6 mph 27.6 mph N/A   Mostly Cloudy
7:10 PM 33.8 °F 22.2 °F 28.4 °F 81% 30.35 in 10.0 mi NNW 20.7 mph 34.5 mph N/A   Overcast
7:26 PM 33.8 °F 22.8 °F 28.4 °F 81% 30.35 in 10.0 mi NW 18.4 mph 25.3 mph N/A   Mostly Cloudy
7:53 PM 33.1 °F 21.5 °F 27.0 °F 78% 30.41 in 10.0 mi NNW 19.6 mph 27.6 mph N/A   Clear
8:53 PM 32.0 °F 20.5 °F 26.1 °F 79% 30.43 in 10.0 mi NNW 18.4 mph 27.6 mph N/A   Clear
9:53 PM 33.1 °F 20.9 °F 26.1 °F 75% 30.44 in 10.0 mi NNW 21.9 mph 29.9 mph N/A   Clear
10:53 PM 32.0 °F 19.5 °F 28.9 °F 88% 30.44 in 3.0 mi North 21.9 mph 26.5 mph 0.00 in Snow Light Snow
11:53 PM 32.0 °F 19.5 °F 28.9 °F 88% 30.44 in 10.0 mi North 21.9 mph - 0.00 in   Mostly Cloudy